Time,TemperatureF,DewpointF,PressureIn,WindDirection,WindDirectionDegrees,WindSpeedMPH,WindSpeedGustMPH,Humidity,HourlyPrecipIn,Conditions,Clouds,dailyrainin,SolarRadiationWatts/m^2,SoftwareType,DateUTC
2013-10-10 00:03:00,66.0,34.0,30.04,WSW,243,22.0,31.0,29,-99.99,,,-99.99,0.000000,,2013-10-10 06:03:00,
2013-10-10 00:42:00,65.0,33.0,30.03,WSW,245,22.0,27.0,30,-99.99,,,-99.99,0.000000,,2013-10-10 06:42:00,
2013-10-10 00:53:00,65.0,33.0,30.03,WSW,240,22.0,28.0,30,-99.99,,,-99.99,0.000000,,2013-10-10 06:53:00,
2013-10-10 01:02:00,65.0,33.0,30.03,WSW,240,22.0,28.0,30,-99.99,,,-99.99,0.000000,,2013-10-10 07:02:00,
2013-10-10 01:42:00,64.0,35.0,30.03,WSW,252,21.0,28.0,34,-99.99,,,-99.99,0.000000,,2013-10-10 07:42:00,
2013-10-10 02:22:00,62.0,36.0,30.04,West,260,17.0,24.0,37,-99.99,,,-99.99,0.000000,,2013-10-10 08:22:00,
2013-10-10 02:32:00,62.0,36.0,30.04,West,260,17.0,24.0,37,-99.99,,,-99.99,0.000000,,2013-10-10 08:32:00,
2013-10-10 04:30:00,63.0,42.0,30.01,SW,231,21.0,36.0,45,-99.99,,,-99.99,0.000000,,2013-10-10 10:30:00,
2013-10-10 04:42:00,63.0,41.0,30.01,SW,231,21.0,38.0,44,-99.99,,,-99.99,0.000000,,2013-10-10 10:42:00,
2013-10-10 04:53:00,63.0,42.0,30.01,SW,231,21.0,36.0,45,-99.99,,,-99.99,0.000000,,2013-10-10 10:53:00,
2013-10-10 05:03:00,63.0,42.0,30.01,SW,231,21.0,36.0,45,-99.99,,,-99.99,0.000000,,2013-10-10 11:03:00,
2013-10-10 05:12:00,63.0,42.0,30.01,SW,231,21.0,36.0,45,-99.99,,,-99.99,0.000000,,2013-10-10 11:12:00,
2013-10-10 05:22:00,63.0,42.0,30.01,SW,231,21.0,36.0,45,-99.99,,,-99.99,0.000000,,2013-10-10 11:22:00,
2013-10-10 07:42:00,61.0,42.0,30.00,SW,229,17.0,39.0,49,-99.99,,,-99.99,4.180000,,2013-10-10 13:42:00,
2013-10-10 07:52:00,61.0,42.0,30.00,SW,229,17.0,39.0,49,-99.99,,,-99.99,4.180000,,2013-10-10 13:52:00,
2013-10-10 08:02:00,61.0,42.0,30.00,SW,229,17.0,39.0,49,-99.99,,,-99.99,4.180000,,2013-10-10 14:02:00,
2013-10-10 08:42:00,62.0,42.0,30.01,SW,219,19.0,47.0,47,-99.99,,,-99.99,26.500000,,2013-10-10 14:42:00,
2013-10-10 09:43:00,63.0,40.0,30.01,SSW,213,23.0,50.0,42,-99.99,,,-99.99,345.880005,,2013-10-10 15:43:00,
2013-10-10 10:23:00,63.0,38.0,30.00,SW,220,25.0,52.0,39,-99.99,,,-99.99,474.190002,,2013-10-10 16:23:00,
2013-10-10 10:33:00,63.0,38.0,30.00,SW,220,25.0,52.0,39,-99.99,,,-99.99,474.190002,,2013-10-10 16:33:00,
2013-10-10 12:12:00,67.0,32.0,29.97,WSW,240,34.0,63.0,26,-99.99,,,-99.99,670.830017,,2013-10-10 18:12:00,
2013-10-10 13:22:00,68.0,33.0,29.94,SW,236,37.0,68.0,27,-99.99,,,-99.99,656.190002,,2013-10-10 19:22:00,
2013-10-10 13:42:00,68.0,33.0,29.93,SW,236,40.0,65.0,27,-99.99,,,-99.99,716.859985,,2013-10-10 19:42:00,
2013-10-10 14:22:00,68.0,32.0,29.91,WSW,246,40.0,64.0,25,-99.99,,,-99.99,428.160004,,2013-10-10 20:22:00,
2013-10-10 14:32:00,68.0,32.0,29.91,WSW,246,40.0,64.0,25,-99.99,,,-99.99,428.160004,,2013-10-10 20:32:00,
2013-10-10 17:23:00,66.0,38.0,29.92,West,272,36.0,45.0,35,-99.99,,,-99.99,136.679993,,2013-10-10 23:23:00,
2013-10-10 17:43:00,65.0,38.0,29.93,West,271,37.0,45.0,36,-99.99,,,-99.99,90.650002,,2013-10-10 23:43:00,
2013-10-10 18:42:00,65.0,36.0,29.93,West,270,32.0,41.0,34,-99.99,,,-99.99,24.410000,,2013-10-11 00:42:00,
2013-10-10 22:44:00,53.0,29.0,30.04,West,278,17.0,24.0,38,-99.99,,,-99.99,0.000000,,2013-10-11 04:44:00,
2013-10-10 23:13:00,52.0,29.0,30.02,West,274,22.0,29.0,40,-99.99,,,-99.99,0.000000,,2013-10-11 05:13:00,
2013-10-10 23:43:00,53.0,29.0,30.04,West,274,18.0,25.0,39,-99.99,,,-99.99,0.000000,,2013-10-11 05:43:00,
2013-10-10 23:52:00,53.0,29.0,30.04,West,274,18.0,25.0,39,-99.99,,,-99.99,0.000000,,2013-10-11 05:52:00,